Content
SEND FEEDBACK

United States of America Flag

ANN ARBOR, MICHIGAN


Home > North America > United States > Michigan
Elevation: 231 meters     Latitude: 42 17N     Longitude: 083 43W

WEATHER
 
SELECT A DAY
Number of Records: 223,647;   Date Range: 1/1/95 - 3/21/16
 
SHARE

PRINT THIS DATA

[ ← Previous Day ]
WEATHER ALMANAC - 7 FEBRUARY, 2013
[ Next Day → ]
[ °F ]   °C
Weather ElementAverageHighLow
Temperature-0.7 °C3.9 °C (3:53 pm)-4.4 °C (1:53 am)
Dewpoint-4.9 °C-2.8 °C (2:53 pm)-7.8 °C (1:53 am)
Humidity74 %88 % (11:53 pm)62 % (3:53 pm)
Barometer1019.3 hPa1025.4 hPa (1:53 am)1011.2 hPa (11:53 pm)
Wind Speed12.1 km/h18.5 km/h (3:53 pm)
Wind Gust27.8 km/h (9:53 pm)
Weather ElementAverage
Visibility15 km
Wind DirectionE (95 °)

Weather ElementTotal
Precipitation0.25 mm
Heating Degree Days18.6 (Base 18.3)
Averaged from 22 records on 7 February, 2013
WEATHER CONDITIONS BREAKOUT
WIND DIRECTION BREAKOUT
WEATHER BY HOUR - 7 FEBRUARY, 2013
[ °F ]   °C
Local TimeTemperatureDewpointHumidityBarometerVisibilityWind DirectionWind SpeedGust SpeedPrecipitationEventsConditions
1:53 AM-4.4 °C-7.8 °C77 %1025.4 hPa16.1 kmESE (120°)7.4 km/hOvercast
2:53 AM-3.9 °C-7.2 °C78 %1025.1 hPa16.1 kmSE (130°)9.3 km/hOvercast
3:53 AM-3.9 °C-7.2 °C78 %1025.1 hPa16.1 kmCalmOvercast
4:53 AM-3.3 °C-7.2 °C75 %1024.4 hPa16.1 kmEast (90°)11.1 km/hOvercast
5:53 AM-3.3 °C-7.2 °C75 %1024.4 hPa16.1 kmESE (120°)9.3 km/hOvercast
6:53 AM-3.3 °C-6.7 °C78 %1024 hPa16.1 kmESE (120°)11.1 km/hOvercast
7:53 AM-2.8 °C-6.1 °C78 %1023.7 hPa16.1 kmSE (130°)11.1 km/hOvercast
8:53 AM-2.8 °C-5.6 °C81 %1023.4 hPa12.9 kmSE (140°)9.3 km/hOvercast
10:53 AM-0.6 °C-5 °C72 %1022.4 hPa12.9 kmESE (110°)7.4 km/hOvercast
11:53 AM1.1 °C-4.4 °C67 %1021.7 hPa14.5 kmEast (80°)13 km/hClear
12:53 PM1.7 °C-3.9 °C67 %1020.3 hPa14.5 kmEast (100°)13 km/hClear
1:53 PM2.8 °C-3.3 °C65 %1019 hPa16.1 kmEast (80°)11.1 km/hPartly Cloudy
2:53 PM3.3 °C-2.8 °C65 %1017.9 hPa16.1 kmEast (100°)13 km/hClear
3:53 PM3.9 °C-2.8 °C62 %1016.6 hPa16.1 kmEast (100°)18.5 km/hPartly Cloudy
4:53 PM2.2 °C-2.8 °C70 %1015.9 hPa14.5 kmEast (90°)13 km/hClear
5:53 PM1.1 °C-3.3 °C73 %1015.9 hPa12.9 kmESE (110°)16.7 km/hPartly Cloudy
6:53 PM0 °C-3.9 °C75 %1015.6 hPa16.1 kmEast (90°)14.8 km/hScattered Clouds
7:53 PM-0.6 °C-3.9 °C79 %1014.6 hPa16.1 kmEast (90°)14.8 km/hMostly Cloudy
8:53 PM-0.6 °C-4.4 °C76 %1013.9 hPa16.1 kmEast (90°)16.7 km/hOvercast
9:53 PM-0.6 °C-4.4 °C76 %1012.9 hPa16.1 kmENE (70°)11.1 km/h27.8 km/hOvercast
10:53 PM-0.6 °C-5 °C72 %1012.2 hPa16.1 kmENE (60°)14.8 km/hOvercast
11:53 PM-1.1 °C-2.8 °C88 %1011.2 hPa6.4 kmENE (70°)18.5 km/h27.8 km/h0.25 mmRainLight Freezing Rain
Hourly data recorded from KARB, located 0 kilometers away from Ann Arbor, Michigan




STORIES FROM OUR PARTNERS